Weather reports worldwide

Advertisment
Coleshill, United Kingdom (3535): temperature & dewpoint: 15.09.2020 01:00:00 - 21.09.2020 01:00:00 (BST)Coleshill, United Kingdom (3535): temperature -20cm & temperature -100cm: 15.09.2020 01:00:00 - 21.09.2020 01:00:00 (BST)Coleshill, United Kingdom (3535): wind speed & gusts: 15.09.2020 01:00:00 - 21.09.2020 01:00:00 (BST)Coleshill, United Kingdom (3535): wind direction: 15.09.2020 01:00:00 - 21.09.2020 01:00:00 (BST)Coleshill, United Kingdom (3535): reduced air pressure: 15.09.2020 01:00:00 - 21.09.2020 01:00:00 (BST)Coleshill, United Kingdom (3535): visibility: 15.09.2020 01:00:00 - 21.09.2020 01:00:00 (BST)Coleshill, United Kingdom (3535): precipitation: 15.09.2020 01:00:00 - 21.09.2020 01:00:00 (BST)
Date & Time tt [°C] td [°C] tt -20cm [°C] tt -100cm [°C] ff [km/h] ff [kn] fx [km/h] fx [kn] dd ppp [hPa] vv [km] rr [mm]
21.09.2020 01:00:00 9,2 8,8 - - 5 3 - - NNW 1020,6 12 0,0
21.09.2020 00:00:00 9,9 9,4 - - 9 5 - - NNW 1020,8 16 0,0
20.09.2020 23:00:00 10,0 8,7 - - 8 4 - - N 1021,0 22 0,0
20.09.2020 22:00:00 11,5 9,3 - - 4 2 - - NNE 1021,0 25 0,0
20.09.2020 21:00:00 12,9 9,6 - - 8 4 - - NNE 1021,1 30 0,0
20.09.2020 20:00:00 13,8 9,6 - - 5 3 - - NE 1020,8 30 0,0
20.09.2020 19:00:00 16,6 10,4 - - 8 4 - - NE 1020,3 50 0,0
20.09.2020 18:00:00 18,1 10,6 - - 13 7 - - NE 1020,0 30 0,0
20.09.2020 17:00:00 19,0 10,7 - - 13 7 - - NE 1019,8 30 0,0
20.09.2020 16:00:00 18,9 11,0 - - 15 8 - - NE 1020,0 18 0,0
20.09.2020 15:00:00 18,8 11,0 - - 16 9 - - NE 1020,1 26 0,0
20.09.2020 14:00:00 18,3 11,1 - - 15 8 - - NE 1020,7 25 0,0
20.09.2020 13:00:00 17,4 10,9 - - 18 10 - - NE 1021,1 35 0,0
20.09.2020 12:00:00 16,2 11,0 - - 18 10 - - NNE 1021,5 23 0,0
20.09.2020 11:00:00 15,4 11,0 - - 16 9 - - NE 1021,6 21 0,0
20.09.2020 10:00:00 14,5 11,3 - - 11 6 - - NE 1021,6 28 0,0
20.09.2020 09:00:00 13,3 11,6 - - 13 7 - - NNE 1021,4 18 0,0
20.09.2020 08:00:00 12,1 10,9 - - 11 6 - - NNE 1021,1 13 0,0
20.09.2020 07:00:00 12,2 10,7 - - 13 7 - - N 1020,8 15 0,0
20.09.2020 06:00:00 12,6 10,8 - - 13 7 - - NNE 1020,8 16 0,0
20.09.2020 05:00:00 12,8 10,8 - - 13 7 - - NNE 1020,5 22 0,0
20.09.2020 04:00:00 13,1 10,6 - - 15 8 - - NNE 1020,6 22 0,0
20.09.2020 03:00:00 13,2 10,6 - - 15 8 - - NNE 1020,8 22 0,0
20.09.2020 02:00:00 13,3 10,7 - - 15 8 - - NE 1020,9 25 0,0
20.09.2020 01:00:00 13,2 11,1 - - 18 10 - - NNE 1020,7 20 0,0
20.09.2020 00:00:00 13,5 10,8 - - 15 8 - - NE 1021,0 19 0,0
19.09.2020 23:00:00 13,5 10,7 - - 16 9 - - NNE 1021,0 20 0,0
19.09.2020 22:00:00 13,9 11,0 - - 15 8 - - NE 1020,7 20 0,0
19.09.2020 21:00:00 13,7 10,9 - - 15 8 - - NNE 1020,1 20 0,0
19.09.2020 20:00:00 14,9 10,9 - - 16 9 - - NNE 1019,7 26 0,0
19.09.2020 19:00:00 16,5 10,8 - - 15 8 - - NE 1018,9 26 0,0
19.09.2020 18:00:00 18,0 10,4 - - 21 11 - - NE 1018,4 24 0,0
19.09.2020 17:00:00 19,1 9,8 - - 18 10 - - NE 1018,4 40 0,0
19.09.2020 16:00:00 19,6 10,0 - - 22 12 46 25 NE 1018,3 35 0,0
19.09.2020 15:00:00 20,1 9,5 - - 24 13 - - NE 1018,7 21 0,0
19.09.2020 14:00:00 19,9 10,3 - - 22 12 - - NE 1019,1 28 0,0
19.09.2020 13:00:00 18,9 11,6 - - 22 12 - - NE 1019,6 30 0,0
19.09.2020 12:00:00 17,8 12,6 - - 18 10 - - NE 1020,0 25 0,0
19.09.2020 11:00:00 15,8 11,7 - - 21 11 - - NE 1020,6 16 0,0
19.09.2020 10:00:00 14,7 11,5 15,7 16,0 16 9 - - NE 1020,7 21 0,0
19.09.2020 09:00:00 13,7 11,5 - - 16 9 - - NE 1020,9 17 0,0
19.09.2020 08:00:00 13,2 11,4 - - 13 7 - - NE 1021,1 15 0,0
19.09.2020 07:00:00 12,9 11,3 - - 15 8 - - NE 1021,1 14 0,0
19.09.2020 06:00:00 12,7 11,3 - - 13 7 - - NNE 1021,0 13 0,0
19.09.2020 05:00:00 11,9 11,0 - - 11 6 - - N 1021,1 19 0,0
19.09.2020 04:00:00 10,9 10,2 - - 13 7 - - N 1021,2 16 0,0
19.09.2020 03:00:00 10,3 9,6 - - 11 6 - - N 1021,6 17 0,0
19.09.2020 02:00:00 10,3 9,3 - - 13 7 - - NNE 1022,0 24 0,0
19.09.2020 01:00:00 10,3 8,9 - - 11 6 - - N 1022,6 26 0,0
19.09.2020 00:00:00 11,3 9,2 - - 9 5 - - NNE 1023,1 30 0,0
18.09.2020 23:00:00 11,5 9,0 - - 11 6 - - NNE 1023,5 40 0,0
18.09.2020 22:00:00 12,2 8,9 - - 15 8 - - NE 1023,3 35 0,0
18.09.2020 21:00:00 12,7 8,3 - - 13 7 - - NE 1023,3 45 0,0
18.09.2020 20:00:00 13,8 8,0 - - 15 8 - - NE 1022,8 40 0,0
18.09.2020 19:00:00 15,2 8,1 - - 16 9 - - NE 1022,3 45 0,0
18.09.2020 18:00:00 16,8 8,2 - - 16 9 - - ENE 1022,3 35 0,0
18.09.2020 17:00:00 18,3 8,4 - - 18 10 - - NE 1022,2 45 0,0
18.09.2020 16:00:00 18,8 9,3 - - 21 11 - - NE 1022,3 24 0,0
18.09.2020 15:00:00 18,8 9,1 - - 21 11 - - NE 1023,0 29 0,0
18.09.2020 14:00:00 18,7 9,2 - - 18 10 - - ENE 1023,6 30 0,0
18.09.2020 13:00:00 18,1 8,6 - - 18 10 - - E 1024,7 35 0,0
18.09.2020 12:00:00 17,2 9,5 - - 16 9 - - ENE 1025,3 35 0,0
18.09.2020 11:00:00 15,6 10,2 - - 16 9 - - ENE 1025,8 30 0,0
18.09.2020 10:00:00 14,0 9,8 16,0 16,0 16 9 - - NE 1025,9 24 0,0
18.09.2020 09:00:00 9,8 9,4 - - 9 5 - - N 1026,3 15 0,0
18.09.2020 08:00:00 7,6 7,5 - - 11 6 - - N 1026,5 9 0,0
18.09.2020 07:00:00 6,6 6,5 - - 9 5 - - N 1026,3 9 0,0
18.09.2020 06:00:00 5,9 5,8 - - 8 4 - - N 1026,2 7 0,0
18.09.2020 05:00:00 6,1 6,0 - - 8 4 - - N 1026,5 2,3 0,0
18.09.2020 04:00:00 6,8 6,5 - - 8 4 - - N 1026,8 8 0,0
18.09.2020 03:00:00 7,2 6,9 - - 5 3 - - N 1027,5 9 0,0
18.09.2020 02:00:00 7,8 7,2 - - 8 4 - - NNW 1027,7 22 0,0
18.09.2020 01:00:00 8,5 7,6 - - 8 4 - - NNW 1028,4 29 0,0
18.09.2020 00:00:00 9,4 7,9 - - 5 3 - - NNE 1028,6 30 0,0
17.09.2020 23:00:00 11,2 8,4 - - 5 3 - - ENE 1028,6 35 0,0
17.09.2020 22:00:00 12,5 8,9 - - 9 5 - - NE 1028,6 40 0,0
17.09.2020 21:00:00 13,8 8,6 - - 11 6 - - NE 1028,1 40 0,0
17.09.2020 20:00:00 15,6 9,7 - - 13 7 - - NE 1027,5 23 0,0
17.09.2020 19:00:00 17,2 10,7 - - 9 5 - - ENE 1027,0 22 0,0
17.09.2020 18:00:00 18,5 10,0 - - 9 5 - - E 1027,1 27 0,0
17.09.2020 17:00:00 19,3 9,5 - - 13 7 - - ENE 1027,4 26 0,0
17.09.2020 16:00:00 19,6 8,7 - - 11 6 - - E 1027,9 17 0,0
17.09.2020 15:00:00 19,1 9,5 - - 13 7 - - ENE 1028,5 16 0,0
17.09.2020 14:00:00 18,3 10,2 - - 11 6 - - E 1029,4 18 0,0
17.09.2020 13:00:00 16,9 10,1 - - 15 8 - - ENE 1030,4 29 0,0
17.09.2020 12:00:00 16,4 10,3 - - 15 8 - - ENE 1030,9 23 0,0
17.09.2020 11:00:00 14,8 10,0 - - 13 7 - - E 1031,1 13 0,0
17.09.2020 10:00:00 14,0 10,3 16,7 16,0 13 7 - - ENE 1031,2 12 0,0
17.09.2020 09:00:00 12,5 9,7 - - 11 6 - - NE 1031,1 15 0,0
17.09.2020 08:00:00 10,2 9,6 - - 4 2 - - N 1030,9 14 0,0
17.09.2020 07:00:00 10,1 8,5 - - 5 3 - - NE 1030,8 13 0,0
17.09.2020 06:00:00 12,0 9,5 - - 9 5 - - NE 1030,6 15 0,0
17.09.2020 05:00:00 12,2 9,8 - - 9 5 - - NE 1030,6 14 0,0
17.09.2020 04:00:00 12,1 9,8 - - 8 4 - - NE 1030,8 16 0,0
17.09.2020 03:00:00 12,3 9,5 - - 8 4 - - NNE 1031,0 17 0,0
17.09.2020 02:00:00 12,6 9,5 - - 13 7 - - ENE 1031,2 15 0,0
17.09.2020 01:00:00 12,9 9,6 - - 16 9 - - NE 1031,4 17 0,0
17.09.2020 00:00:00 13,0 10,0 - - 15 8 - - NE 1030,9 17 0,0
16.09.2020 23:00:00 13,4 10,7 - - 13 7 - - NE 1030,4 17 0,0
16.09.2020 22:00:00 13,9 11,0 - - 11 6 - - NE 1029,9 15 0,0
16.09.2020 21:00:00 14,3 11,4 - - 13 7 - - ENE 1029,4 14 0,0
16.09.2020 20:00:00 14,6 11,7 - - 15 8 - - NE 1028,9 15 0,0
16.09.2020 19:00:00 15,3 12,6 - - 18 10 - - NE 1028,1 16 0,0
16.09.2020 18:00:00 15,5 13,5 - - 16 9 - - NE 1027,7 10 0,0
16.09.2020 17:00:00 15,9 14,0 - - 18 10 - - NE 1027,4 10 0,0
16.09.2020 16:00:00 16,5 14,2 - - 16 9 - - NNE 1027,0 9 0,0
16.09.2020 15:00:00 17,2 14,2 - - 24 13 - - NNE 1026,7 10 0,0
16.09.2020 14:00:00 19,6 15,3 - - 18 10 - - NNE 1026,0 10 0,0
16.09.2020 13:00:00 19,7 15,1 - - 16 9 - - NE 1025,7 13 0,0
16.09.2020 12:00:00 19,3 15,1 - - 16 9 - - N 1025,6 9 0,0
16.09.2020 11:00:00 19,6 15,0 - - 15 8 - - NNE 1024,9 11 0,0
16.09.2020 10:00:00 18,8 15,3 17,0 16,0 15 8 - - NNE 1024,4 15 0,0
16.09.2020 09:00:00 16,2 14,5 - - 9 5 - - NNW 1023,8 9 0,0
16.09.2020 08:00:00 13,3 13,2 - - 4 2 - - NNW 1023,3 7 0,0
16.09.2020 07:00:00 12,3 11,8 - - 4 2 - - NNW 1022,8 4,5 0,0
16.09.2020 06:00:00 13,1 12,4 - - 4 2 - - NNW 1022,1 6 0,0
16.09.2020 05:00:00 13,7 13,3 - - 4 2 - - NNW 1021,8 13 0,0
16.09.2020 04:00:00 14,0 12,6 - - 2 1 - - ENE 1021,8 8 0,0
16.09.2020 03:00:00 15,2 13,2 - - 4 2 - - NNW 1021,5 17 0,0
16.09.2020 02:00:00 15,8 13,1 - - 2 1 - - NW 1021,3 19 0,0
16.09.2020 01:00:00 17,4 13,6 - - 8 4 - - NW 1021,1 24 0,0
16.09.2020 00:00:00 18,4 14,9 - - 5 3 - - NW 1020,9 18 0,0
15.09.2020 23:00:00 19,5 15,8 - - 4 2 - - NNW 1020,4 18 0,0
15.09.2020 22:00:00 20,4 15,9 - - 5 3 - - NNW 1019,8 23 0,0
15.09.2020 21:00:00 20,9 15,8 - - 0 0 - - N 1019,4 21 0,0
15.09.2020 20:00:00 22,6 16,3 - - 8 4 - - NW 1018,7 24 0,0
15.09.2020 19:00:00 22,9 16,8 - - 8 4 - - NNW 1018,2 24 0,0
15.09.2020 18:00:00 24,2 16,7 - - 8 4 - - N 1017,8 45 0,0
15.09.2020 17:00:00 25,8 16,2 - - 5 3 - - N 1017,7 35 0,0
15.09.2020 16:00:00 26,9 14,8 - - 4 2 - - N 1017,4 40 0,0
15.09.2020 15:00:00 28,2 15,4 - - 2 1 - - ESE 1017,6 40 0,0
15.09.2020 14:00:00 27,3 15,1 - - 5 3 - - SE 1017,8 22 0,0
15.09.2020 13:00:00 26,0 13,7 - - 8 4 - - ENE 1017,9 35 0,0
15.09.2020 12:00:00 24,9 14,1 - - 9 5 - - E 1018,1 30 0,0
15.09.2020 11:00:00 22,0 15,1 - - 5 3 - - N 1018,3 29 0,0
15.09.2020 10:00:00 17,6 14,9 16,2 15,7 8 4 - - N 1018,7 17 0,0
15.09.2020 09:00:00 15,5 14,5 - - 5 3 - - N 1018,9 13 0,0
15.09.2020 08:00:00 12,8 12,8 - - 8 4 - - NNW 1018,7 7 0,0
15.09.2020 07:00:00 10,9 10,8 - - 4 2 - - N 1018,7 0,2 0,0
15.09.2020 06:00:00 10,9 10,8 - - 5 3 - - NNW 1018,6 2,2 0,0
15.09.2020 05:00:00 11,1 10,8 - - 5 3 - - N 1018,8 3,7 0,0
15.09.2020 04:00:00 11,9 11,6 - - 5 3 - - NNW 1018,7 10 0,0
15.09.2020 03:00:00 12,4 11,4 - - 5 3 - - N 1018,8 12 0,0
15.09.2020 02:00:00 13,0 11,5 - - 5 3 - - NNW 1019,0 15 0,0
15.09.2020 01:00:00 13,5 11,4 - - 2 1 - - N 1019,2 22 0,0

tt = temperature
td = dewpoint
tt -20cm = temperature -20cm
tt -100cm = temperature -100cm
ff = wind speed
fx = gusts
dd = wind direction
ppp = reduced air pressure
vv = visibility
rr = precipitation

Next stations